Location: Stoke Bliss
(52.2667°N, 2.5167°W)
Time: 07:42:15
(UTC+00:00)

Envisat - Pass Details

Date: 05 December 2021
Orbit: 764 x 766 km, 98.2° (Epoch: 17 January)

Event Time Altitude Azimuth Distance (km) Brightness Sun altitude
Rises 06:31:48 0° 8° (N) 3,248 6.1 -13.0°
Reaches altitude 10° 06:34:20 10° 359° (N) 2,317 5.3 -12.6°
Maximum altitude 06:38:45 31° 299° (WNW) 1,339 3.7 -12.0°
Drops below altitude 10° 06:43:08 10° 239° (WSW) 2,302 5.1 -11.4°
Sets 06:45:39 0° 229° (SW) 3,224 6.0 -11.0°
